TimeCDT,TemperatureF,Dew PointF,Humidity,Sea Level PressureIn,VisibilityMPH,Wind Direction,Wind SpeedMPH,Gust SpeedMPH,PrecipitationIn,Events,Conditions,WindDirDegrees,DateUTC
12:13 AM,26.6,24.8,93,29.89,1.5,NNW,26.5,33.4,N/A,Snow,Light Snow,340,2013-03-10 06:13:00
12:34 AM,26.6,24.8,93,29.90,2.5,North,27.6,32.2,N/A,Snow,Light Snow,350,2013-03-10 06:34:00
12:53 AM,26.6,24.8,93,29.91,2.0,North,26.5,-,N/A,Snow,Light Snow,350,2013-03-10 06:53:00
1:13 AM,26.6,24.8,93,29.92,2.0,North,25.3,36.8,N/A,Snow,Light Snow,350,2013-03-10 07:13:00
1:33 AM,26.6,24.8,93,29.95,4.0,NNW,25.3,29.9,N/A,,Overcast,340,2013-03-10 07:33:00
1:53 AM,26.6,24.8,93,29.95,2.0,North,26.5,-,N/A,Snow,Light Snow,350,2013-03-10 07:53:00
3:13 AM,24.8,21.2,86,29.95,2.0,North,29.9,36.8,N/A,Snow,Light Snow,350,2013-03-10 08:13:00
3:33 AM,24.8,21.2,86,29.93,5.0,North,25.3,31.1,N/A,,Overcast,350,2013-03-10 08:33:00
3:53 AM,24.8,21.2,86,29.92,2.0,North,31.1,39.1,N/A,Snow,Light Snow,350,2013-03-10 08:53:00
4:13 AM,24.8,21.2,86,29.93,3.0,NNW,26.5,34.5,N/A,Snow,Light Snow,340,2013-03-10 09:13:00
4:34 AM,24.8,21.2,86,29.93,3.0,North,27.6,35.7,N/A,Snow,Light Snow,350,2013-03-10 09:34:00
4:53 AM,24.8,21.2,86,29.95,3.0,North,26.5,35.7,N/A,Snow,Light Snow,350,2013-03-10 09:53:00
5:13 AM,24.8,21.2,86,29.95,4.0,North,27.6,33.4,N/A,,Overcast,350,2013-03-10 10:13:00
5:33 AM,24.8,21.2,86,29.97,4.0,North,27.6,32.2,N/A,Snow,Light Snow,350,2013-03-10 10:33:00
5:53 AM,24.8,21.2,86,29.98,2.0,NNW,29.9,33.4,N/A,Snow,Light Snow,340,2013-03-10 10:53:00
6:13 AM,24.8,21.2,86,29.98,1.5,North,28.8,36.8,N/A,Snow,Light Snow,350,2013-03-10 11:13:00
6:33 AM,24.8,21.2,86,30.00,3.0,North,27.6,33.4,N/A,Snow,Light Snow,350,2013-03-10 11:33:00
7:13 AM,24.8,21.2,86,29.99,7.0,North,26.5,31.1,N/A,,Overcast,350,2013-03-10 12:13:00
7:33 AM,24.8,21.2,86,29.99,5.0,North,31.1,34.5,N/A,,Overcast,350,2013-03-10 12:33:00
7:53 AM,24.8,21.2,86,30.01,1.8,NNW,29.9,35.7,N/A,Snow,Light Snow,340,2013-03-10 12:53:00
8:13 AM,24.8,21.2,86,30.05,0.8,NNW,24.2,33.4,N/A,Snow,Light Snow,340,2013-03-10 13:13:00
8:34 AM,24.8,21.2,86,30.07,1.5,North,24.2,31.1,N/A,Snow,Light Snow,350,2013-03-10 13:34:00
8:53 AM,24.8,21.2,86,30.07,0.5,NNW,25.3,31.1,N/A,Snow,Light Snow,340,2013-03-10 13:53:00
9:14 AM,23.0,21.2,93,30.07,0.5,NNW,29.9,36.8,N/A,Snow,Light Snow,340,2013-03-10 14:14:00
9:33 AM,23.0,21.2,93,30.06,1.8,NNW,28.8,34.5,N/A,Snow,Light Snow,340,2013-03-10 14:33:00
9:53 AM,23.0,21.2,93,30.06,2.5,North,27.6,31.1,N/A,,Overcast,350,2013-03-10 14:53:00
10:13 AM,23.0,21.2,93,30.06,3.0,North,24.2,-,N/A,,Overcast,350,2013-03-10 15:13:00
10:33 AM,24.8,19.4,80,30.08,3.0,North,21.9,-,N/A,,Overcast,350,2013-03-10 15:33:00
10:53 AM,24.8,21.2,86,30.07,3.0,North,25.3,31.1,N/A,Snow,Light Snow,350,2013-03-10 15:53:00
11:13 AM,24.8,21.2,86,30.08,2.0,North,26.5,-,N/A,Snow,Light Snow,350,2013-03-10 16:13:00
11:33 AM,24.8,21.2,86,30.06,1.5,NNW,27.6,33.4,N/A,Snow,Light Snow,340,2013-03-10 16:33:00
11:53 AM,24.8,21.2,86,30.07,1.8,North,25.3,33.4,N/A,Snow,Light Snow,350,2013-03-10 16:53:00
12:13 PM,24.8,21.2,86,30.09,3.0,North,25.3,31.1,N/A,,Overcast,350,2013-03-10 17:13:00
12:33 PM,24.8,21.2,86,30.09,4.0,NNW,26.5,-,N/A,,Overcast,340,2013-03-10 17:33:00
12:53 PM,24.8,21.2,86,30.09,7.0,North,26.5,32.2,N/A,,Overcast,350,2013-03-10 17:53:00
1:13 PM,24.8,19.4,80,30.07,5.0,NNW,25.3,29.9,N/A,,Haze,340,2013-03-10 18:13:00
1:33 PM,24.8,21.2,86,30.06,4.0,North,26.5,33.4,N/A,,Overcast,350,2013-03-10 18:33:00
1:53 PM,24.8,19.4,80,30.06,2.5,NNW,26.5,29.9,N/A,,Overcast,340,2013-03-10 18:53:00
2:14 PM,24.8,21.2,86,30.07,2.5,NNW,21.9,28.8,N/A,,Overcast,340,2013-03-10 19:14:00
2:33 PM,24.8,21.2,86,30.07,4.0,NNW,19.6,-,N/A,,Overcast,340,2013-03-10 19:33:00
2:53 PM,26.6,21.2,80,30.06,7.0,NNW,19.6,-,N/A,,Overcast,340,2013-03-10 19:53:00
3:13 PM,26.6,21.2,80,30.07,7.0,NNW,20.7,-,N/A,,Overcast,340,2013-03-10 20:13:00
3:34 PM,26.6,21.2,80,30.06,10.0,NNW,21.9,-,N/A,,Overcast,340,2013-03-10 20:34:00
3:53 PM,26.6,21.2,80,30.04,4.0,NNW,25.3,-,N/A,,Haze,330,2013-03-10 20:53:00
4:13 PM,24.8,21.2,86,30.04,4.0,NNW,24.2,-,N/A,,Overcast,340,2013-03-10 21:13:00
4:33 PM,24.8,21.2,86,30.02,1.2,NNW,26.5,-,N/A,Snow,Light Snow,340,2013-03-10 21:33:00
4:53 PM,24.8,19.4,80,30.01,1.0,NNW,28.8,34.5,N/A,Snow,Light Snow,340,2013-03-10 21:53:00
5:14 PM,23.0,19.4,86,30.00,0.8,NNW,27.6,35.7,N/A,Snow,Light Snow,340,2013-03-10 22:14:00
5:33 PM,23.0,19.4,86,30.02,1.0,North,29.9,35.7,N/A,Snow,Light Snow,350,2013-03-10 22:33:00
5:53 PM,23.0,19.4,86,30.03,2.5,North,26.5,-,N/A,Snow,Light Snow,350,2013-03-10 22:53:00
6:13 PM,21.2,19.4,93,30.04,10.0,North,23.0,-,N/A,,Overcast,350,2013-03-10 23:13:00
6:33 PM,21.2,19.4,93,30.04,10.0,North,20.7,-,N/A,,Overcast,350,2013-03-10 23:33:00
6:53 PM,21.2,17.6,86,30.04,10.0,North,20.7,-,N/A,,Overcast,350,2013-03-10 23:53:00
7:14 PM,21.2,17.6,86,30.03,10.0,North,21.9,-,N/A,,Overcast,350,2013-03-11 00:14:00
7:34 PM,21.2,17.6,86,30.03,10.0,North,25.3,-,N/A,,Overcast,350,2013-03-11 00:34:00
7:53 PM,19.4,15.8,86,30.03,10.0,NNW,24.2,-,N/A,,Overcast,340,2013-03-11 00:53:00
8:14 PM,19.4,15.8,86,30.02,10.0,NNW,27.6,34.5,N/A,,Overcast,340,2013-03-11 01:14:00
8:33 PM,19.4,15.8,86,30.04,10.0,NNW,27.6,31.1,N/A,,Scattered Clouds,340,2013-03-11 01:33:00
9:13 PM,17.6,15.8,93,30.05,10.0,North,20.7,-,N/A,,Scattered Clouds,350,2013-03-11 02:13:00
9:33 PM,17.6,15.8,93,30.06,10.0,NNW,19.6,24.2,N/A,,Mostly Cloudy,340,2013-03-11 02:33:00
9:53 PM,17.6,14.0,86,30.05,10.0,NNW,19.6,-,N/A,,Mostly Cloudy,340,2013-03-11 02:53:00
10:13 PM,17.6,14.0,86,30.05,10.0,NNW,20.7,-,N/A,,Mostly Cloudy,340,2013-03-11 03:13:00
10:33 PM,17.6,12.2,79,30.04,10.0,North,19.6,-,N/A,,Scattered Clouds,350,2013-03-11 03:33:00
10:53 PM,15.8,12.2,86,30.04,10.0,NNW,17.3,-,N/A,,Scattered Clouds,340,2013-03-11 03:53:00
11:13 PM,15.8,12.2,86,30.03,10.0,NNW,16.1,-,N/A,,Mostly Cloudy,340,2013-03-11 04:13:00
11:33 PM,15.8,12.2,86,30.02,10.0,NNW,17.3,-,N/A,,Scattered Clouds,330,2013-03-11 04:33:00
11:53 PM,15.8,10.4,79,30.02,10.0,NNW,16.1,20.7,N/A,,Scattered Clouds,330,2013-03-11 04:53:00
12:14 AM,14.0,10.4,86,30.01,10.0,NNW,18.4,-,N/A,,Mostly Cloudy,340,2013-03-11 05:14:00
12:33 AM,14.0,10.4,86,30.01,10.0,NNW,17.3,-,N/A,,Overcast,340,2013-03-11 05:33:00
12:53 AM,14.0,10.4,86,30.01,10.0,NNW,17.3,-,N/A,,Overcast,340,2013-03-11 05:53:00